Location: �quirre
(50.4736°N, 2.2351°E)
Time: 15:37:27
(UTC+00:00)

Cosmos 1943 - Pass Details

Date: 07 August 2020
Orbit: 834 x 849 km, 71.0° (Epoch: 25 September)

Event Time Altitude Azimuth Distance (km) Brightness Sun altitude
Rises 03:03:40 0° 330° (NNW) 3,394 6.5 -11.7°
Reaches altitude 10° 03:06:07 10° 332° (NNW) 2,456 5.8 -11.4°
Maximum altitude 03:11:45 80° 60° (ENE) 854 3.3 -10.7°
Drops below altitude 10° 03:17:23 10° 148° (SSE) 2,444 5.5 -10.1°
Sets 03:19:49 0° 149° (SSE) 3,376 6.2 -9.8°
